Location: ?????
(55.8833°N, 37.6500°E)
Time: 16:59:39
(UTC+00:00)

STARLINK-39 - Pass Details

Date: 27 February 2020
Orbit: 529 x 530 km, 53.0° (Epoch: 07 April)

Event Time Altitude Azimuth Distance (km) Brightness Sun altitude
Rises 17:25:32 0° 272° (W) 2,673 8.5 -21.2°
Reaches altitude 10° 17:27:47 10° 268° (W) 1,783 7.2 -21.5°
Maximum altitude 17:31:43 51° 192° (SSW) 677 3.9 -22.1°
Enters shadow 17:31:43 51° 192° (SSW) 677 3.9 -22.1°
